IK3JLT-13 Weather Reports


time (UTC)temp
C
wind
direction
speed
KPH
gust
KPH
rain 1hr
cm
rain 24hr
cm
rain mn
cm
humidity
%
barometer
mb
20260906075704 27 90 14.5 17.7 0.00 0.00 0.00 48 1021.0
20260906074704 27 90 17.7 19.3 0.00 0.00 0.00 51 1021.0
20260906073703 27 90 17.7 20.9 0.00 0.00 0.00 52 1021.0
20260906072703 26 135 12.9 14.5 0.00 0.00 0.00 53 1021.0
20260906071703 26 135 16.1 17.7 0.00 0.00 0.00 54 1020.9
20260906070703 26 90 12.9 16.1 0.00 0.00 0.00 56 1020.8
20260906065703 26 68 17.7 22.5 0.00 0.00 0.00 58 1020.7
20260906064703 26 135 9.7 11.3 0.00 0.00 0.00 60 1020.7
20260906063703 25 90 9.7 11.3 0.00 0.00 0.00 61 1020.6
20260906062703 26 90 8.0 12.9 0.00 0.00 0.00 60 1020.6
20260906061703 26 90 4.8 6.4 0.00 0.00 0.00 60 1020.4
20260906060704 26 90 8.0 11.3 0.00 0.00 0.00 58 1020.3
20260906055702 26 90 6.4 8.0 0.00 0.00 0.00 58 1020.1
20260906054703 25 90 6.4 6.4 0.00 0.00 0.00 59 1020.0
20260906053702 25 90 6.4 8.0 0.00 0.00 0.00 60 1019.9
20260906052703 25 90 6.4 8.0 0.00 0.00 0.00 61 1019.8
20260906051702 24 45 6.4 9.7 0.00 0.00 0.00 61 1019.8
20260906050702 23 90 4.8 6.4 0.00 0.00 0.00 62 1019.8
20260906045704 23 0 6.4 9.7 0.00 0.00 0.00 63 1019.7
20260906044703 23 22 6.4 6.4 0.00 0.00 0.00 63 1019.8
20260906043704 23 45 4.8 6.4 0.00 0.00 0.00 64 1019.5
20260906042703 23 0 6.4 9.7 0.00 0.00 0.00 65 1019.6
20260906041704 22 45 6.4 9.7 0.00 0.00 0.00 68 1019.4
20260906040703 21 0 12.9 17.7 0.00 0.00 0.00 74 1019.5
20260906035703 21 45 3.2 4.8 0.00 0.00 0.00 73 1019.5
20260906034702 22 90 1.6 3.2 0.00 0.00 0.00 72 1019.3
20260906033702 22 90 1.6 3.2 0.00 0.00 0.00 72 1019.3
20260906032702 22 0 1.6 3.2 0.00 0.00 0.00 73 1019.2
20260906031702 21 315 3.2 4.8 0.00 0.00 0.00 73 1019.1
20260906030702 21 180 3.2 6.4 0.00 0.00 0.00 74 1019.2
20260906025702 21 0 4.8 6.4 0.00 0.00 0.00 74 1019.0
20260906024702 21 315 3.2 4.8 0.00 0.00 0.00 74 1018.9
20260906023702 21 135 4.8 6.4 0.00 0.00 0.00 74 1019.0
20260906022702 21 315 3.2 3.2 0.00 0.00 0.00 74 1018.8
20260906021702 21 180 0.0 0.0 0.00 0.00 0.00 74 1018.7
20260906020702 21 135 3.2 3.2 0.00 0.00 0.00 73 1018.8
20260906015702 22 225 0.0 0.0 0.00 0.00 0.00 73 1018.6
20260906014702 22 315 3.2 4.8 0.00 0.00 0.00 72 1018.6
20260906013702 22 225 0.0 0.0 0.00 0.00 0.00 72 1018.5
20260906012703 22 225 0.0 0.0 0.00 0.00 0.00 70 1018.5
20260906011701 22 135 3.2 3.2 0.00 0.00 0.00 70 1018.5
20260906010702 22 315 4.8 6.4 0.00 0.00 0.00 68 1018.5
20260906005702 23 45 3.2 3.2 0.00 0.00 0.00 67 1018.4
20260906004700 23 0 3.2 4.8 0.00 0.00 0.00 67 1018.4
20260906003659 23 0 6.4 8.0 0.00 0.00 0.00 67 1018.2
20260906002700 23 315 3.2 3.2 0.00 0.00 0.00 67 1018.3
20260906001659 23 0 3.2 4.8 0.00 0.00 0.00 67 1018.5
20260906000659 23 292 6.4 6.4 0.00 0.00 0.00 66 1018.3
20260905235700 24 315 4.8 6.4 0.00 0.00 0.00 64 1018.4
20260905234659 24 45 1.6 1.6 0.00 0.00 0.00 63 1018.4
20260905233700 24 90 3.2 3.2 0.00 0.00 0.00 63 1018.2
20260905232703 24 90 3.2 4.8 0.00 0.00 0.00 63 1018.2
20260905231702 25 90 3.2 4.8 0.00 0.00 0.00 62 1018.2
20260905230702 25 90 3.2 6.4 0.00 0.00 0.00 62 1018.1
20260905225703 25 45 6.4 8.0 0.00 0.00 0.00 62 1018.3
20260905224702 25 45 4.8 6.4 0.00 0.00 0.00 62 1018.1
20260905223702 25 45 6.4 6.4 0.00 0.00 0.00 63 1018.0
20260905222702 25 45 4.8 6.4 0.00 0.00 0.00 64 1018.0
20260905221702 25 90 4.8 6.4 0.00 0.00 0.00 65 1018.0
20260905220702 25 90 3.2 6.4 0.00 0.00 0.00 66 1018.0
20260905215702 25 90 6.4 9.7 0.00 0.00 0.00 66 1017.9
20260905214702 25 90 8.0 9.7 0.00 0.00 0.00 65 1017.7
20260905213702 25 90 8.0 11.3 0.00 0.00 0.00 67 1017.8
20260905212702 25 90 6.4 8.0 0.00 0.00 0.00 66 1017.7
20260905211615 25 45 8.0 12.9 0.00 0.00 0.00 65 1017.7
20260905210615 25 90 11.3 12.9 0.00 0.00 0.00 65 1017.6
20260905205616 25 90 6.4 8.0 0.00 0.00 0.00 64 1017.7
20260905204615 25 45 8.0 11.3 0.00 0.00 0.00 64 1017.7
20260905203615 25 45 6.4 6.4 0.00 0.00 0.00 64 1017.6
20260905202614 25 45 4.8 6.4 0.00 0.00 0.00 65 1017.4
20260905201614 25 90 6.4 9.7 0.00 0.00 0.00 62 1017.3
20260905200613 26 90 6.4 9.7 0.00 0.00 0.00 60 1017.1
20260905195613 26 90 9.7 12.9 0.00 0.00 0.00 60 1016.8
20260905194613 25 90 9.7 12.9 0.00 0.00 0.00 60 1016.8
20260905193612 25 90 6.4 8.0 0.00 0.00 0.00 61 1016.6
20260905192613 25 90 3.2 4.8 0.00 0.00 0.00 60 1016.5
20260905191611 26 90 3.2 4.8 0.00 0.00 0.00 59 1016.4
20260905190611 26 90 3.2 4.8 0.00 0.00 0.00 57 1016.4
20260905185612 26 45 3.2 4.8 0.00 0.00 0.00 55 1016.3
20260905184611 27 90 3.2 3.2 0.00 0.00 0.00 54 1016.1
20260905183610 27 45 3.2 3.2 0.00 0.00 0.00 53 1016.0
20260905182610 27 90 0.0 0.0 0.00 0.00 0.00 49 1015.8
20260905181610 28 90 3.2 3.2 0.00 0.00 0.00 48 1015.5
20260905180610 28 45 4.8 6.4 0.00 0.00 0.00 49 1015.4
20260905175609 28 90 4.8 6.4 0.00 0.00 0.00 49 1015.3
20260905174608 28 90 4.8 6.4 0.00 0.00 0.00 49 1015.1
20260905173607 28 90 3.2 3.2 0.00 0.00 0.00 50 1015.0
20260905172606 29 68 1.6 3.2 0.00 0.00 0.00 49 1015.0
20260905171606 30 135 1.6 3.2 0.00 0.00 0.00 46 1014.8
20260905170606 30 135 6.4 6.4 0.00 0.00 0.00 43 1014.8
20260905165606 30 135 3.2 3.2 0.00 0.00 0.00 44 1014.7
20260905164605 30 135 3.2 3.2 0.00 0.00 0.00 45 1014.7
20260905163604 31 135 4.8 6.4 0.00 0.00 0.00 43 1014.5
20260905162603 31 135 3.2 4.8 0.00 0.00 0.00 42 1014.5
20260905161602 31 135 4.8 4.8 0.00 0.00 0.00 41 1014.4
20260905160602 31 135 6.4 8.0 0.00 0.00 0.00 41 1014.5
20260905155603 31 135 6.4 8.0 0.00 0.00 0.00 41 1014.3
20260905154603 31 90 3.2 6.4 0.00 0.00 0.00 40 1014.3
20260905153603 31 135 3.2 3.2 0.00 0.00 0.00 40 1014.2
20260905152602 31 180 4.8 6.4 0.00 0.00 0.00 37 1014.2
20260905151603 31 135 6.4 6.4 0.00 0.00 0.00 36 1014.1
20260905150604 32 135 6.4 8.0 0.00 0.00 0.00 36 1014.2
20260905145604 32 135 6.4 6.4 0.00 0.00 0.00 35 1014.1
20260905144603 32 135 6.4 11.3 0.00 0.00 0.00 34 1014.1
20260905143603 32 180 4.8 6.4 0.00 0.00 0.00 35 1014.2
20260905142603 32 90 3.2 4.8 0.00 0.00 0.00 35 1014.3
20260905141603 32 180 3.2 6.4 0.00 0.00 0.00 35 1014.2
20260905140604 31 135 8.0 9.7 0.00 0.00 0.00 35 1014.3
20260905135603 31 90 6.4 8.0 0.00 0.00 0.00 35 1014.3
20260905134603 32 90 6.4 8.0 0.00 0.00 0.00 35 1014.3
20260905133603 32 135 6.4 8.0 0.00 0.00 0.00 36 1014.3
20260905132603 32 135 3.2 4.8 0.00 0.00 0.00 36 1014.4
20260905131603 32 180 9.7 11.3 0.00 0.00 0.00 36 1014.5
20260905130603 31 180 6.4 8.0 0.00 0.00 0.00 36 1014.6
20260905125603 31 135 6.4 6.4 0.00 0.00 0.00 37 1014.6
20260905124603 31 135 6.4 9.7 0.00 0.00 0.00 37 1014.7
20260905123602 31 90 6.4 8.0 0.00 0.00 0.00 38 1014.6
20260905122603 31 135 6.4 6.4 0.00 0.00 0.00 39 1014.8
20260905121603 31 180 6.4 9.7 0.00 0.00 0.00 39 1014.8
20260905120604 31 158 6.4 6.4 0.00 0.00 0.00 40 1015.0
20260905115602 31 90 3.2 4.8 0.00 0.00 0.00 40 1015.0
20260905114603 31 135 6.4 8.0 0.00 0.00 0.00 41 1015.0
20260905113603 31 68 6.4 8.0 0.00 0.00 0.00 40 1015.1
20260905112603 31 135 6.4 6.4 0.00 0.00 0.00 41 1015.0
20260905111603 31 90 11.3 12.9 0.00 0.00 0.00 40 1015.1
20260905110602 31 135 8.0 9.7 0.00 0.00 0.00 39 1015.2
20260905105603 31 90 6.4 8.0 0.00 0.00 0.00 40 1015.3
20260905104603 31 22 6.4 6.4 0.00 0.00 0.00 40 1015.4
20260905103603 30 45 3.2 8.0 0.00 0.00 0.00 42 1015.3
20260905102603 30 180 4.8 6.4 0.00 0.00 0.00 42 1015.3
20260905101603 30 90 6.4 9.7 0.00 0.00 0.00 44 1015.2
20260905100603 29 90 6.4 8.0 0.00 0.00 0.00 49 1015.4
20260905095603 29 135 9.7 11.3 0.00 0.00 0.00 50 1015.5
20260905094602 28 45 3.2 6.4 0.00 0.00 0.00 52 1015.4
20260905093602 28 90 3.2 6.4 0.00 0.00 0.00 54 1015.5
20260905092603 28 135 6.4 8.0 0.00 0.00 0.00 54 1015.4
20260905091602 28 90 6.4 8.0 0.00 0.00 0.00 53 1015.4
20260905090602 28 68 6.4 8.0 0.00 0.00 0.00 55 1015.5
20260905085604 28 90 4.8 6.4 0.00 0.00 0.00 56 1015.2
20260905084602 27 68 6.4 8.0 0.00 0.00 0.00 55 1015.3
20260905083603 28 135 0.0 3.2 0.00 0.00 0.00 54 1015.1
20260905082603 27 90 3.2 6.4 0.00 0.00 0.00 57 1015.2
20260905081603 27 45 6.4 8.0 0.00 0.00 0.00 56 1015.1
20260905080604 27 90 8.0 9.7 0.00 0.00 0.00 60 1015.2